This demonstration page uses our WeatherBlox Daily Observations layout. Learn more.

Left ArrowRight Arrow

Hourly Observations for September 13, 2017

Temp ( °F °C ) Dew Point ( °F °C ) Humidity (%) Winds ( mph kmh ) Pressure ( in mb ) Visibility ( mi km ) Precip ( " mm )
12:10 am 00:10 Cloudy 61 16 55 13 83 83 E 3 6 29.83 1010 10 16.0934 N/A
12:31 am 00:31 Cloudy 63 17 55 13 77 77 E 6 9 29.8 1009 10 16.0934 N/A
12:50 am 00:50 Cloudy 63 17 57 14 83 83 ESE 5 7 29.8 1009 10 16.0934 N/A
1:10 am 01:10 Cloudy 63 17 57 14 83 83 ESE 6 9 29.8 1009 10 16.0934 N/A
1:31 am 01:31 Cloudy 63 17 57 14 83 83 SE 7 11 29.8 1009 10 16.0934 N/A
1:50 am 01:50 Cloudy 63 17 57 14 83 83 E 6 9 29.8 1009 10 16.0934 N/A
2:10 am 02:10 Cloudy 63 17 57 14 83 83 E 6 9 29.8 1009 10 16.0934 N/A
2:31 am 02:31 Cloudy 63 17 59 15 88 88 ESE 5 7 29.8 1009 10 16.0934 N/A
2:50 am 02:50 Cloudy 63 17 59 15 88 88 ESE 5 7 29.8 1009 10 16.0934 N/A
3:10 am 03:10 Cloudy 61 16 59 15 94 94 ESE 6 9 29.8 1009 10 16.0934 N/A
3:31 am 03:31 Cloudy 61 16 59 15 94 94 ESE 6 9 29.8 1009 10 16.0934 N/A
3:50 am 03:50 Cloudy 61 16 59 15 94 94 SE 5 7 29.8 1009 10 16.0934 N/A
4:10 am 04:10 Cloudy 61 16 59 15 94 94 SE 5 7 29.77 1008 10 16.0934 N/A
4:30 am 04:30 Cloudy 61 16 59 15 94 94 SSE 5 7 29.77 1008 10 16.0934 N/A
4:50 am 04:50 Cloudy 61 16 59 15 94 94 Calm 29.77 1008 10 16.0934 N/A
5:10 am 05:10 Cloudy 61 16 59 15 94 94 Calm 29.77 1008 10 16.0934 N/A
5:30 am 05:30 Cloudy 61 16 59 15 94 94 Calm 29.8 1009 10 16.0934 N/A
5:50 am 05:50 Cloudy 61 16 59 15 94 94 SSE 3 6 29.8 1009 10 16.0934 N/A
6:10 am 06:10 Cloudy 61 16 59 15 94 94 SSE 5 7 29.8 1009 7 11.26538 N/A
6:30 am 06:30 Cloudy 61 16 59 15 94 94 SE 3 6 29.8 1009 10 16.0934 N/A
6:50 am 06:50 Cloudy 61 16 59 15 94 94 SE 3 6 29.8 1009 7 11.26538 N/A
7:10 am 07:10 Cloudy 59 15 59 15 100 100 SE 5 7 29.8 1009 7 11.26538 N/A
7:30 am 07:30 Cloudy 59 15 59 15 100 100 SE 5 7 29.8 1009 4 6.43736 N/A
7:50 am 07:50 Cloudy 59 15 59 15 100 100 Calm 29.8 1009 5 8.0467 N/A
8:10 am 08:10 Cloudy 59 15 59 15 100 100 E 3 6 29.8 1009 7 11.26538 N/A
8:30 am 08:30 Cloudy 59 15 59 15 100 100 Calm 29.8 1009 7 11.26538 N/A
8:50 am 08:50 Cloudy 61 16 59 15 94 94 Calm 29.8 1009 7 11.26538 N/A
9:10 am 09:10 Cloudy 61 16 59 15 94 94 Calm 29.8 1009 10 16.0934 N/A
9:30 am 09:30 Cloudy 61 16 61 16 100 100 SE 7 11 29.8 1009 10 16.0934 N/A
9:50 am 09:50 Cloudy 63 17 61 16 94 94 SE 7 11 29.8 1009 10 16.0934 N/A
10:10 am 10:10 Cloudy 63 17 61 16 94 94 SSE 8 13 29.8 1009 10 16.0934 N/A
10:30 am 10:30 Cloudy 63 17 59 15 88 88 SSE 6 9 29.8 1009 10 16.0934 N/A
10:50 am 10:50 Cloudy 64 18 59 15 83 83 S 9 15 29.8 1009 10 16.0934 N/A
11:10 am 11:10 Cloudy 63 17 59 15 88 88 SSE 9 15 29.8 1009 10 16.0934 N/A
11:30 am 11:30 Cloudy 64 18 61 16 88 88 SSE 8 13 29.8 1009 10 16.0934 N/A
11:50 am 11:50 Cloudy 64 18 59 15 83 83 SSE 9 15 29.8 1009 10 16.0934 N/A
12:10 pm 12:10 Cloudy 64 18 59 15 83 83 SSE 10 17 29.8 1009 10 16.0934 N/A
12:30 pm 12:30 Cloudy 64 18 59 15 83 83 SSE 10 17 29.8 1009 10 16.0934 N/A
12:50 pm 12:50 Cloudy 64 18 59 15 83 83 SSE 8 13 29.8 1009 10 16.0934 N/A
1:11 pm 13:11 Cloudy 63 17 61 16 94 94 SSE 10 17 29.8 1009 7 11.26538 N/A
1:30 pm 13:30 Cloudy 63 17 61 16 94 94 S 6 9 29.8 1009 10 16.0934 N/A
1:50 pm 13:50 Cloudy 63 17 61 16 94 94 SSE 6 9 29.8 1009 10 16.0934 N/A
2:11 pm 14:11 Cloudy 64 18 61 16 88 88 SSE 7 11 29.8 1009 10 16.0934 N/A
2:30 pm 14:30 Cloudy 64 18 61 16 88 88 SE 10 17 29.8 1009 10 16.0934 N/A
2:50 pm 14:50 Cloudy 64 18 61 16 88 88 SSE 8 13 29.77 1008 10 16.0934 N/A
3:11 pm 15:11 Cloudy 66 19 61 16 83 83 SE 8 13 29.74 1007 10 16.0934 N/A
3:30 pm 15:30 Cloudy 64 18 63 17 94 94 SE 7 11 29.77 1008 10 16.0934 N/A
3:50 pm 15:50 Cloudy 64 18 61 16 88 88 SE 8 13 29.77 1008 7 11.26538 N/A
4:10 pm 16:10 Cloudy 64 18 61 16 88 88 SE 6 9 29.77 1008 10 16.0934 N/A
4:30 pm 16:30 Cloudy 64 18 61 16 88 88 SE 8 13 29.77 1008 10 16.0934 N/A
4:50 pm 16:50 Cloudy 64 18 61 16 88 88 SE 7 11 29.77 1008 10 16.0934 N/A
5:10 pm 17:10 Cloudy 64 18 61 16 88 88 SE 7 11 29.77 1008 10 16.0934 N/A
5:30 pm 17:30 Cloudy 64 18 61 16 88 88 SE 8 13 29.77 1008 10 16.0934 N/A
5:50 pm 17:50 Cloudy 63 17 59 15 88 88 SE 6 9 29.77 1008 10 16.0934 N/A
6:10 pm 18:10 Cloudy 63 17 59 15 88 88 SE 5 7 29.77 1008 10 16.0934 N/A
6:30 pm 18:30 Cloudy 63 17 61 16 94 94 ESE 5 7 29.77 1008 10 16.0934 N/A
6:50 pm 18:50 Cloudy 63 17 59 15 88 88 SE 5 7 29.77 1008 10 16.0934 N/A
7:10 pm 19:10 Cloudy 63 17 59 15 88 88 SE 3 6 29.77 1008 10 16.0934 N/A
7:30 pm 19:30 Cloudy 63 17 59 15 88 88 SE 5 7 29.8 1009 10 16.0934 N/A
7:50 pm 19:50 Cloudy 63 17 59 15 88 88 SE 3 6 29.8 1009 10 16.0934 N/A
8:10 pm 20:10 Cloudy 63 17 59 15 88 88 SSE 5 7 29.8 1009 10 16.0934 N/A
8:30 pm 20:30 Cloudy 61 16 59 15 94 94 SE 3 6 29.8 1009 10 16.0934 N/A
8:50 pm 20:50 Cloudy 61 16 59 15 94 94 Calm 29.8 1009 10 16.0934 N/A
9:10 pm 21:10 Cloudy 61 16 59 15 94 94 SSE 3 6 29.8 1009 10 16.0934 N/A
9:30 pm 21:30 Cloudy 61 16 59 15 94 94 Calm 29.8 1009 10 16.0934 N/A
9:50 pm 21:50 Cloudy 61 16 59 15 94 94 Calm 29.8 1009 10 16.0934 N/A
10:10 pm 22:10 Cloudy 61 16 59 15 94 94 S 5 7 29.83 1010 10 16.0934 N/A
10:30 pm 22:30 Cloudy 61 16 59 15 94 94 SSE 3 6 29.83 1010 10 16.0934 N/A
10:50 pm 22:50 Cloudy 61 16 59 15 94 94 SSE 5 7 29.83 1010 10 16.0934 N/A
11:10 pm 23:10 Cloudy 61 16 59 15 94 94 SSE 3 6 29.83 1010 10 16.0934 N/A
11:30 pm 23:30 Cloudy 61 16 59 15 94 94 Calm 29.83 1010 10 16.0934 N/A
11:50 pm 23:50 Cloudy 61 16 59 15 94 94 S 3 6 29.83 1010 10 16.0934 N/A

Powered by AerisWeather